Location: Lansingburgh
(42.7845°N, 73.6696°W)
Time: 18:42:09
(UTC+00:00)

Cosmos 44 Rocket - Pass Details

Date: 24 January 2020
Orbit: 660 x 730 km, 65.1° (Epoch: 26 February)

Event Time Altitude Azimuth Distance (km) Brightness Sun altitude
Rises 23:46:19 0° 196° (SSW) 3,035 6.9 -20.0°
Reaches altitude 10° 23:48:43 10° 190° (S) 2,113 6.0 -20.4°
Enters shadow 23:53:14 47° 120° (ESE) 892 3.5 -21.2°
